"startDT [UTC]","vpos","CH4 [ppm]","stdev(CH4) [ppm]","CO2 [ppm]","stdev(CO2) [ppm]","H2O [ppm]","stdev(H2O)","p_LGR [torr]","T_LGR [C]","mt1_LGR [us]","mt2_LGR [us]","T_ECpre [C]","T_EC1 [C]","T_EC2 [C]","p_inlet [hPa]","p_in [hPa]","p_out [hPa]","T_inlet [C]","RH_inlet [%]","dwpt_inlet [C]","T_vent [C]","RH_vent [%]","dwpt_vent [C]","flow_vent [l min-1]","flow_inlet [l min-1]","dwpt_sample [C]","T_room [C]"
2012-05-25 00:00:00,0.0,1.8925,0.0008,403.72,0.16,181.6,29.4,137.96,34.41,24.64,36.42,0.96,-25.86,16.78,-63,559,-929,29.8,13.1,-1.5,29.7,1.0,-31.6,5.73,2.28,-26.9,33.8
2012-05-25 00:01:00,0.0,1.8927,0.0009,403.72,0.20,181.5,26.3,137.97,34.41,24.64,36.42,0.95,-25.86,16.91,-63,559,-929,29.8,13.1,-1.5,29.7,1.0,-31.6,5.73,2.26,-26.8,33.8
2012-05-25 00:02:00,0.0,1.8927,0.0009,403.64,0.17,182.9,28.4,137.96,34.41,24.64,36.43,0.96,-25.85,17.03,-63,559,-929,29.8,13.1,-1.5,29.7,1.0,-31.7,5.73,2.26,-26.8,33.9
2012-05-25 00:03:00,0.0,1.8928,0.0008,403.62,0.18,183.4,27.0,137.96,34.41,24.64,36.43,0.95,-25.85,17.14,-63,559,-929,29.8,13.1,-1.5,29.7,1.0,-31.5,5.73,2.28,-26.9,33.9
2012-05-25 00:04:00,0.0,1.8930,0.0009,403.70,0.17,184.8,24.6,137.96,34.41,24.64,36.43,0.95,-25.84,17.26,-63,559,-929,29.8,13.1,-1.5,29.7,1.0,-31.5,5.73,2.28,-26.8,33.9
2012-05-25 00:05:00,0.0,1.8925,0.0008,403.75,0.17,184.7,31.7,137.96,34.41,24.64,36.42,0.96,-25.84,17.36,-63,559,-929,29.8,13.0,-1.6,29.7,1.1,-31.4,5.73,2.28,-26.8,33.9
2012-05-25 00:06:00,0.0,1.8927,0.0011,403.63,0.20,186.1,29.9,137.97,34.41,24.64,36.43,0.97,-25.83,17.47,-63,559,-929,29.8,13.1,-1.6,29.7,1.0,-31.5,5.73,2.25,-26.9,33.9
2012-05-25 00:07:00,0.0,1.8928,0.0009,403.58,0.16,181.9,29.4,137.96,34.41,24.64,36.43,0.96,-25.83,17.57,-63,559,-929,29.8,13.0,-1.5,29.7,1.0,-31.5,5.73,2.26,-26.8,33.9
2012-05-25 00:08:00,0.0,1.8927,0.0009,403.69,0.17,185.0,27.9,137.96,34.41,24.64,36.42,0.97,-25.82,17.67,-63,559,-929,29.8,13.1,-1.5,29.7,1.0,-31.6,5.73,2.28,-26.8,33.9
2012-05-25 00:09:00,0.0,1.8926,0.0010,403.68,0.18,185.0,27.9,137.96,34.41,24.64,36.43,0.97,-25.82,17.75,-63,559,-929,29.8,13.1,-1.5,29.7,1.1,-31.5,5.73,2.29,-26.8,33.9
2012-05-25 00:10:00,0.0,1.8925,0.0009,403.65,0.19,187.4,25.1,137.96,34.42,24.64,36.43,0.97,-25.82,17.84,-63,559,-929,29.8,13.1,-1.5,29.7,1.1,-31.3,5.73,2.28,-26.8,33.8
2012-05-25 00:11:00,0.0,1.8929,0.0011,403.75,0.16,187.1,24.8,137.96,34.42,24.64,36.42,0.95,-25.82,17.93,-63,559,-929,29.8,13.1,-1.5,29.7,1.0,-31.5,5.73,2.26,-26.8,33.9
2012-05-25 00:12:00,0.0,1.8929,0.0009,403.71,0.20,185.3,28.4,137.96,34.42,24.64,36.42,0.97,-25.81,18.00,-63,559,-929,29.8,13.2,-1.5,29.7,1.0,-31.6,5.73,2.26,-26.8,33.9
2012-05-25 00:13:00,0.0,1.8933,0.0009,403.71,0.17,177.5,28.7,137.96,34.42,24.64,36.42,0.94,-25.81,18.08,-63,559,-929,29.8,13.2,-1.4,29.7,1.0,-31.5,5.73,2.28,-26.8,33.9
2012-05-25 00:14:00,0.0,1.8929,0.0010,403.70,0.20,185.9,23.1,137.96,34.43,24.64,36.42,0.94,-25.81,18.15,-63,559,-929,29.8,13.1,-1.5,29.7,1.0,-31.6,5.73,2.29,-26.8,33.9
2012-05-25 00:15:00,0.0,1.8926,0.0010,403.64,0.16,187.1,21.7,137.96,34.43,24.64,36.42,0.95,-25.80,18.22,-63,559,-929,29.8,13.1,-1.5,29.7,1.0,-31.6,5.73,2.27,-26.8,33.9
2012-05-25 00:16:00,0.0,1.8929,0.0010,403.58,0.23,192.3,28.3,137.96,34.43,24.64,36.43,0.93,-25.80,18.28,-63,559,-929,29.8,13.1,-1.5,29.8,1.1,-31.4,5.73,2.26,-26.8,33.9
2012-05-25 00:17:00,0.0,1.8928,0.0008,403.66,0.18,186.4,25.0,137.96,34.43,24.64,36.43,0.95,-25.80,18.35,-63,559,-929,29.8,13.0,-1.6,29.8,1.1,-31.1,5.73,2.26,-26.8,34.0
2012-05-25 00:18:00,0.0,1.8926,0.0009,403.62,0.18,190.5,27.6,137.96,34.43,24.64,36.42,0.93,-25.80,18.41,-63,559,-929,29.8,13.0,-1.6,29.7,1.1,-31.4,5.73,2.29,-26.8,34.0
2012-05-25 00:19:00,0.0,1.8929,0.0011,403.58,0.19,186.9,30.9,137.96,34.43,24.64,36.43,0.93,-25.80,18.47,-63,559,-929,29.8,13.1,-1.5,29.7,1.0,-31.6,5.73,2.28,-26.8,34.0
2012-05-25 00:20:00,0.0,1.8927,0.0008,403.61,0.21,186.0,23.1,137.96,34.44,24.64,36.43,0.96,-25.80,18.52,-63,559,-929,29.8,13.1,-1.4,29.8,1.1,-31.4,5.73,2.26,-26.8,33.9
2012-05-25 00:21:00,0.0,1.8925,0.0008,403.55,0.17,190.7,31.7,137.96,34.44,24.64,36.43,0.94,-25.80,18.58,-63,559,-929,29.8,13.2,-1.4,29.8,1.1,-31.3,5.73,2.26,-26.9,33.9
2012-05-25 00:22:00,0.0,1.8922,0.0009,403.70,0.18,196.1,27.6,137.96,34.44,24.64,36.42,0.95,-25.79,18.63,-63,559,-929,29.8,13.2,-1.3,29.7,1.1,-31.2,5.73,2.27,-26.8,33.8
2012-05-25 00:23:00,0.0,1.8923,0.0009,403.55,0.18,179.2,29.8,137.96,34.44,24.64,36.42,0.97,-25.79,18.68,-63,559,-929,29.9,13.1,-1.4,29.8,1.1,-31.4,5.73,2.28,-26.8,33.8
2012-05-25 00:24:00,0.0,1.8928,0.0008,403.57,0.16,182.9,27.6,137.96,34.44,24.64,36.43,0.95,-25.79,18.73,-63,559,-929,29.9,13.2,-1.3,29.8,1.1,-31.4,5.73,2.28,-26.8,33.9
2012-05-25 00:25:00,0.0,1.8924,0.0008,403.66,0.18,195.5,29.5,137.96,34.44,24.64,36.42,0.96,-25.79,18.77,-63,559,-929,29.9,13.2,-1.4,29.8,1.1,-31.5,5.73,2.26,-26.8,33.9
2012-05-25 00:26:00,0.0,1.8926,0.0008,403.57,0.22,184.0,24.2,137.96,34.44,24.64,36.43,0.96,-25.78,18.82,-63,559,-929,29.9,13.2,-1.3,29.8,1.0,-31.5,5.73,2.26,-26.8,33.9
2012-05-25 00:27:00,0.0,1.8926,0.0008,403.59,0.19,189.3,26.3,137.96,34.44,24.64,36.43,0.97,-25.78,18.86,-63,559,-929,29.9,13.2,-1.4,29.8,1.1,-31.4,5.73,2.28,-26.8,33.9
2012-05-25 00:28:00,0.0,1.8925,0.0008,403.61,0.22,187.1,24.7,137.96,34.44,24.64,36.43,0.97,-25.78,18.90,-63,559,-929,29.9,13.2,-1.4,29.8,1.1,-31.4,5.73,2.28,-26.8,33.9
2012-05-25 00:29:00,0.0,1.8924,0.0008,403.61,0.17,189.2,25.5,137.96,34.45,24.64,36.43,0.96,-25.78,18.93,-63,559,-929,29.9,13.1,-1.4,29.8,1.1,-31.3,5.73,2.27,-26.8,33.9
2012-05-25 00:30:00,0.0,1.8926,0.0008,403.52,0.19,192.8,23.2,137.96,34.45,24.64,36.43,0.97,-25.78,18.97,-63,559,-929,29.9,13.2,-1.3,29.8,1.1,-31.3,5.73,2.26,-26.8,33.9
2012-05-25 00:31:00,0.0,1.8927,0.0011,403.49,0.19,199.1,26.2,137.96,34.45,24.64,36.43,0.97,-25.78,19.00,-63,559,-929,29.9,13.2,-1.3,29.8,1.1,-31.3,5.73,2.26,-26.8,33.9
2012-05-25 00:32:00,0.0,1.8929,0.0008,403.55,0.17,192.2,19.0,137.96,34.45,24.64,36.43,0.98,-25.78,19.04,-63,560,-929,29.9,13.2,-1.3,29.8,1.1,-31.4,5.73,2.28,-26.8,33.9
2012-05-25 00:33:00,0.0,1.8930,0.0010,403.56,0.18,194.3,29.4,137.96,34.46,24.64,36.42,0.97,-25.78,19.07,-63,559,-929,29.9,13.3,-1.3,29.8,1.1,-31.3,5.73,2.28,-26.8,33.9
2012-05-25 00:34:00,0.0,1.8931,0.0011,403.54,0.19,197.2,31.2,137.96,34.46,24.64,36.43,0.96,-25.78,19.10,-63,559,-929,29.9,13.3,-1.3,29.8,1.1,-31.3,5.73,2.26,-26.8,33.9
2012-05-25 00:35:00,0.0,1.8930,0.0010,403.56,0.18,183.3,30.0,137.96,34.46,24.64,36.42,0.96,-25.78,19.13,-63,559,-929,29.9,13.3,-1.2,29.8,1.0,-31.6,5.73,2.25,-26.8,33.8
2012-05-25 00:36:00,0.0,1.8927,0.0009,403.62,0.16,199.8,27.2,137.96,34.46,24.64,36.42,0.96,-25.78,19.16,-63,560,-929,29.9,13.3,-1.2,29.8,1.0,-31.6,5.73,2.27,-26.8,33.8
2012-05-25 00:37:00,0.0,1.8926,0.0009,403.58,0.20,187.2,30.2,137.96,34.47,24.64,36.42,0.97,-25.78,19.18,-63,560,-929,29.9,13.3,-1.2,29.8,1.0,-31.5,5.73,2.28,-26.8,33.8
2012-05-25 00:38:00,0.0,1.8926,0.0010,403.53,0.23,193.0,24.9,137.96,34.47,24.64,36.43,0.96,-25.77,19.21,-63,559,-929,29.9,13.3,-1.2,29.8,1.1,-31.4,5.73,2.28,-26.8,33.9
2012-05-25 00:39:00,0.0,1.8927,0.0008,403.59,0.18,194.5,21.2,137.96,34.47,24.64,36.43,0.97,-25.77,19.23,-63,559,-929,29.9,13.3,-1.2,29.8,1.1,-31.2,5.73,2.26,-26.8,33.9
2012-05-25 00:40:00,0.0,1.8927,0.0008,403.50,0.19,193.9,26.3,137.96,34.48,24.64,36.43,0.94,-25.77,19.26,-63,560,-929,29.9,13.2,-1.3,29.8,1.1,-31.3,5.73,2.26,-26.7,33.9
2012-05-25 00:41:00,0.0,1.8929,0.0009,403.67,0.22,197.0,30.2,137.96,34.48,24.64,36.42,0.96,-25.77,19.28,-63,560,-929,29.9,13.3,-1.2,29.8,1.0,-31.5,5.73,2.27,-26.7,33.9
2012-05-25 00:42:00,0.0,1.8928,0.0009,403.55,0.21,200.6,27.8,137.96,34.49,24.64,36.43,0.93,-25.77,19.30,-63,560,-929,29.9,13.3,-1.1,29.9,1.0,-31.5,5.73,2.29,-26.7,33.9
2012-05-25 00:43:00,0.0,1.8934,0.0008,403.71,0.20,197.4,26.4,137.96,34.49,24.64,36.41,0.95,-25.77,19.32,-63,560,-929,29.9,13.4,-1.1,29.9,1.0,-31.5,5.73,2.27,-26.8,34.0
2012-05-25 00:44:00,0.0,1.8930,0.0011,403.61,0.17,202.5,25.9,137.96,34.49,24.64,36.42,0.96,-25.77,19.34,-63,560,-929,29.9,13.3,-1.1,29.9,1.0,-31.5,5.73,2.25,-26.7,33.9
2012-05-25 00:45:00,0.0,1.8928,0.0011,403.62,0.17,199.8,24.7,137.96,34.49,24.64,36.42,0.94,-25.77,19.36,-63,560,-929,29.9,13.3,-1.2,29.9,1.1,-31.2,5.73,2.26,-26.8,33.9
2012-05-25 00:46:00,0.0,1.8930,0.0007,403.66,0.17,195.2,27.7,137.96,34.49,24.64,36.42,0.93,-25.77,19.38,-63,560,-929,29.9,13.4,-1.1,29.9,1.0,-31.5,5.73,2.28,-26.7,34.0
2012-05-25 00:47:00,0.0,1.8928,0.0009,403.62,0.23,195.9,26.0,137.96,34.49,24.64,36.42,0.96,-25.77,19.40,-63,560,-929,29.9,13.4,-1.1,29.9,1.1,-31.3,5.73,2.28,-26.7,34.0
2012-05-25 00:48:00,0.0,1.8931,0.0008,403.51,0.20,197.4,26.4,137.96,34.50,24.64,36.43,0.96,-25.76,19.42,-63,560,-929,29.9,13.4,-1.1,29.9,1.1,-31.3,5.73,2.26,-26.7,34.0
2012-05-25 00:49:00,0.0,1.8933,0.0010,403.58,0.22,201.6,24.3,137.96,34.50,24.64,36.43,0.94,-25.76,19.44,-63,560,-929,29.9,13.5,-1.0,29.9,1.0,-31.5,5.73,2.25,-26.7,34.0
2012-05-25 00:50:00,0.0,1.8931,0.0010,403.50,0.20,200.8,23.6,137.96,34.50,24.64,36.43,0.95,-25.76,19.45,-63,560,-929,29.9,13.5,-1.0,29.9,1.1,-31.2,5.73,2.27,-26.7,34.0
2012-05-25 00:51:00,0.0,1.8930,0.0008,403.60,0.20,202.7,24.3,137.96,34.50,24.64,36.42,0.97,-25.76,19.47,-63,560,-929,29.9,13.5,-1.0,29.9,1.1,-31.3,5.73,2.28,-26.7,34.1
2012-05-25 00:52:00,0.0,1.8931,0.0009,403.55,0.21,202.9,30.5,137.96,34.50,24.64,36.43,0.96,-25.76,19.48,-63,560,-929,30.0,13.5,-1.0,29.9,1.0,-31.5,5.73,2.27,-26.7,34.0
2012-05-25 00:53:00,0.0,1.8927,0.0009,403.61,0.18,202.8,25.8,137.96,34.51,24.64,36.42,0.96,-25.76,19.49,-63,560,-929,30.0,13.4,-1.0,29.9,1.0,-31.4,5.73,2.25,-26.7,34.1
2012-05-25 00:54:00,0.0,1.8932,0.0009,403.51,0.20,196.8,24.3,137.96,34.51,24.64,36.43,1.15,-25.75,18.71,-63,560,-929,30.0,13.5,-0.9,29.9,1.1,-31.3,5.73,2.26,-26.7,34.0
2012-05-25 00:55:00,0.0,1.8931,0.0009,403.65,0.18,197.6,27.5,137.96,34.51,24.64,36.42,1.15,-25.75,16.60,-63,560,-929,30.0,13.6,-0.8,29.9,1.1,-31.3,5.73,2.28,-26.7,34.0
2012-05-25 00:56:00,0.0,1.8933,0.0007,403.59,0.24,200.8,28.2,137.96,34.52,24.64,36.42,1.03,-25.75,14.19,-63,560,-929,30.0,13.6,-0.8,29.9,1.0,-31.5,5.73,2.28,-26.7,34.1
2012-05-25 00:57:00,0.0,1.8933,0.0007,403.57,0.18,200.7,24.6,137.96,34.52,24.64,36.43,1.01,-25.76,11.79,-63,560,-929,30.0,13.4,-1.0,30.0,1.0,-31.5,5.73,2.25,-26.6,34.1
2012-05-25 00:58:00,0.0,1.8926,0.0009,403.58,0.18,211.1,26.8,137.96,34.52,24.64,36.43,1.10,-25.77,9.46,-63,560,-929,30.0,13.3,-1.1,29.9,1.0,-31.6,5.73,2.25,-26.6,34.1
2012-05-25 00:59:00,0.0,1.8926,0.0010,403.58,0.18,207.7,30.3,137.96,34.53,24.64,36.43,1.11,-25.77,7.21,-63,560,-929,30.0,13.3,-1.1,30.0,1.0,-31.6,5.73,2.27,-26.6,34.1
2012-05-25 01:00:00,0.0,1.8921,0.0009,403.56,0.20,203.1,28.1,137.96,34.53,24.64,36.43,1.03,-25.76,5.07,-63,560,-929,30.0,13.3,-1.1,29.9,1.0,-31.4,5.73,2.28,-26.6,34.1
2012-05-25 01:01:00,0.0,1.8924,0.0009,403.62,0.22,210.8,26.5,137.96,34.53,24.64,36.42,1.06,-25.76,3.05,-63,560,-929,30.0,13.3,-1.1,30.0,1.1,-31.1,5.73,2.26,-26.6,34.1
2012-05-25 01:02:00,0.0,1.8924,0.0008,403.59,0.18,219.3,33.3,137.96,34.53,24.64,36.42,1.12,-25.75,1.15,-63,560,-929,30.1,13.3,-1.1,30.0,1.1,-31.3,5.73,2.24,-26.6,34.1
2012-05-25 01:03:00,0.0,1.8924,0.0008,403.55,0.15,208.8,27.0,137.96,34.54,24.64,36.42,1.04,-25.75,-0.54,-63,560,-929,30.1,13.4,-1.0,30.0,1.0,-31.4,5.73,2.26,-26.6,34.1
2012-05-25 01:04:00,0.0,1.8924,0.0008,403.50,0.20,206.4,25.3,137.96,34.54,24.64,36.43,1.02,-25.76,-2.29,-63,560,-929,30.1,13.4,-1.0,30.0,1.1,-31.3,5.73,2.28,-26.6,34.0
2012-05-25 01:05:00,0.0,1.8928,0.0009,403.54,0.21,214.9,29.0,137.96,34.55,24.64,36.42,1.11,-25.75,-3.93,-64,560,-929,30.1,13.5,-0.9,30.0,1.0,-31.6,5.73,2.27,-26.6,34.1
2012-05-25 01:06:00,0.0,1.8934,0.0009,403.54,0.19,207.0,26.4,137.96,34.55,24.64,36.42,1.09,-25.75,-5.46,-64,560,-929,30.1,13.6,-0.8,30.0,1.1,-31.2,5.73,2.25,-26.6,34.1
2012-05-25 01:07:00,0.0,1.8928,0.0009,403.54,0.17,215.6,27.1,137.96,34.56,24.64,36.42,1.01,-25.76,-6.84,-63,560,-929,30.1,13.5,-0.9,30.0,1.1,-31.2,5.73,2.26,-26.6,34.1
2012-05-25 01:08:00,0.0,1.8928,0.0010,403.50,0.21,214.2,26.3,137.96,34.56,24.64,36.43,1.05,-25.76,-8.16,-63,560,-929,30.1,13.5,-0.8,30.0,1.0,-31.4,5.73,2.27,-26.6,34.0
2012-05-25 01:09:00,0.0,1.8928,0.0009,403.51,0.15,205.6,26.2,137.96,34.57,24.64,36.43,1.11,-25.77,-9.34,-63,560,-929,30.1,13.5,-0.8,30.0,1.0,-31.4,5.73,2.27,-26.6,34.0
2012-05-25 01:10:00,0.0,1.8928,0.0009,403.50,0.19,214.0,27.1,137.96,34.57,24.64,36.42,1.08,-25.77,-10.53,-63,560,-929,30.1,13.6,-0.7,30.0,1.0,-31.4,5.73,2.25,-26.6,34.0
2012-05-25 01:11:00,0.0,1.8927,0.0008,403.42,0.19,221.7,26.6,137.96,34.58,24.64,36.42,1.01,-25.77,-11.68,-64,560,-929,30.1,13.6,-0.7,30.0,1.0,-31.3,5.73,2.25,-26.5,34.0
2012-05-25 01:12:00,0.0,1.8925,0.0010,403.55,0.20,218.6,25.1,137.96,34.58,24.64,36.42,1.05,-25.77,-12.73,-63,560,-929,30.1,13.6,-0.7,30.1,1.1,-31.3,5.73,2.27,-26.5,34.1
2012-05-25 01:13:00,0.0,1.8930,0.0010,403.51,0.16,217.2,23.9,137.96,34.59,24.64,36.42,1.10,-25.78,-13.68,-63,561,-929,30.1,13.7,-0.7,30.1,1.1,-31.1,5.73,2.27,-26.5,34.2
2012-05-25 01:14:00,0.0,1.8928,0.0009,403.49,0.22,209.1,30.6,137.96,34.59,24.64,36.43,1.06,-25.79,-14.59,-63,560,-929,30.1,13.6,-0.7,30.1,1.0,-31.3,5.73,2.25,-26.4,34.1
2012-05-25 01:15:00,0.0,1.8930,0.0008,403.52,0.22,222.6,24.1,137.95,34.60,24.64,36.43,1.00,-25.79,-15.49,-63,560,-929,30.1,13.5,-0.8,30.1,1.1,-31.3,5.73,2.24,-26.4,34.2
2012-05-25 01:16:00,0.0,1.8927,0.0009,403.51,0.18,224.6,27.9,137.96,34.60,24.64,36.43,1.03,-25.80,-16.32,-64,561,-929,30.1,13.5,-0.8,30.1,1.0,-31.5,5.73,2.28,-26.4,34.2
2012-05-25 01:17:00,0.0,1.8929,0.0010,403.59,0.19,228.1,25.1,137.96,34.61,24.63,36.42,1.09,-25.81,-17.04,-64,561,-929,30.2,13.6,-0.7,30.1,1.0,-31.6,5.73,2.27,-26.4,34.2
2012-05-25 01:18:00,0.0,1.8928,0.0010,403.50,0.18,222.7,28.0,137.95,34.62,24.64,36.42,1.07,-25.82,-17.76,-64,560,-929,30.2,13.6,-0.7,30.1,1.0,-31.4,5.73,2.24,-26.4,34.2
2012-05-25 01:19:00,0.0,1.8926,0.0008,403.53,0.18,231.9,27.6,137.95,34.62,24.64,36.42,1.01,-25.83,-18.48,-63,561,-929,30.2,13.6,-0.7,30.1,1.0,-31.7,5.73,2.24,-26.4,34.2
2012-05-25 01:20:00,0.0,1.8927,0.0011,403.48,0.15,227.2,26.6,137.95,34.63,24.64,36.43,1.01,-25.84,-19.16,-64,561,-929,30.2,13.6,-0.7,30.1,1.0,-31.6,5.73,2.27,-26.4,34.2
2012-05-25 01:21:00,0.0,1.8926,0.0009,403.51,0.18,228.3,22.6,137.95,34.63,24.64,36.42,1.06,-25.85,-19.81,-64,561,-929,30.2,13.5,-0.7,30.1,1.1,-31.2,5.73,2.27,-26.4,34.2
2012-05-25 01:22:00,0.0,1.8927,0.0010,403.41,0.21,227.5,28.4,137.95,34.64,24.64,36.43,1.10,-25.86,-20.41,-64,561,-929,30.2,13.4,-0.8,30.1,1.0,-31.7,5.73,2.25,-26.4,34.1
2012-05-25 01:23:00,0.0,1.8928,0.0008,403.49,0.21,228.0,25.8,137.95,34.65,24.64,36.42,1.05,-25.88,-20.97,-64,561,-929,30.3,13.4,-0.8,30.1,1.0,-31.5,5.73,2.24,-26.4,34.1
2012-05-25 01:24:00,0.0,1.8931,0.0010,403.50,0.18,235.5,27.2,137.95,34.65,24.64,36.42,1.00,-25.89,-21.50,-63,561,-929,30.2,13.4,-0.8,30.2,1.0,-31.5,5.73,2.27,-26.4,34.1
2012-05-25 01:25:00,0.0,1.8930,0.0008,403.42,0.18,228.2,28.4,137.95,34.66,24.64,36.43,1.04,-25.90,-22.00,-64,561,-929,30.2,13.5,-0.7,30.2,1.0,-31.6,5.73,2.27,-26.4,34.2
2012-05-25 01:26:00,0.0,1.8932,0.0007,403.54,0.16,232.5,25.7,137.95,34.66,24.64,36.42,1.08,-25.91,-22.47,-64,561,-929,30.2,13.5,-0.7,30.1,1.0,-31.7,5.73,2.24,-26.4,34.2
2012-05-25 01:27:00,0.0,1.8928,0.0008,403.49,0.23,223.6,26.1,137.95,34.67,24.64,36.42,1.07,-25.92,-22.90,-64,561,-929,30.3,13.5,-0.7,30.2,1.0,-32.0,5.73,2.25,-26.4,34.2
2012-05-25 01:28:00,0.0,1.8932,0.0010,403.51,0.18,239.7,32.6,137.95,34.67,24.64,36.42,1.01,-25.92,-23.31,-64,561,-929,30.2,13.6,-0.7,30.2,1.0,-32.0,5.73,2.27,-26.4,34.3
2012-05-25 01:29:00,0.0,1.8934,0.0010,403.54,0.18,233.8,30.9,137.95,34.68,24.64,36.41,1.01,-25.93,-23.70,-63,561,-929,30.3,13.6,-0.6,30.2,0.9,-32.3,5.73,2.26,-26.4,34.3
2012-05-25 01:30:00,0.0,1.8935,0.0010,403.42,0.20,231.6,24.2,137.95,34.68,24.64,36.42,1.05,-25.94,-24.07,-64,561,-929,30.2,13.6,-0.6,30.2,0.9,-32.8,5.73,2.24,-26.3,34.3
2012-05-25 01:31:00,0.0,1.8930,0.0008,403.42,0.20,238.5,33.4,137.95,34.69,24.64,36.42,1.10,-25.95,-24.41,-64,561,-929,30.3,13.6,-0.6,30.2,0.9,-32.7,5.73,2.24,-26.3,34.3
2012-05-25 01:32:00,0.0,1.8933,0.0008,403.46,0.18,234.1,24.2,137.95,34.69,24.64,36.42,1.06,-25.96,-24.73,-64,561,-929,30.3,13.7,-0.6,30.2,0.9,-32.4,5.73,2.27,-26.3,34.3
2012-05-25 01:33:00,0.0,1.8935,0.0009,403.38,0.17,241.0,30.9,137.95,34.70,24.64,36.42,1.00,-25.98,-25.03,-64,561,-929,30.3,13.7,-0.5,30.2,0.9,-32.4,5.73,2.26,-26.3,34.2
2012-05-25 01:34:00,0.0,1.8935,0.0008,403.42,0.20,236.2,32.3,137.95,34.71,24.64,36.42,1.00,-25.98,-25.32,-63,561,-929,30.3,13.6,-0.6,30.2,0.9,-32.5,5.73,2.24,-26.4,34.2
2012-05-25 01:35:00,0.0,1.8935,0.0008,403.50,0.18,233.7,24.7,137.95,34.71,24.64,36.42,1.05,-25.98,-25.59,-64,561,-929,30.3,13.7,-0.5,30.2,1.0,-32.2,5.73,2.25,-26.4,34.3
2012-05-25 01:36:00,0.0,1.8935,0.0009,403.37,0.20,241.8,25.8,137.95,34.72,24.64,36.43,1.08,-25.99,-25.84,-64,561,-929,30.3,13.7,-0.5,30.3,0.9,-32.5,5.73,2.27,-26.4,34.3
2012-05-25 01:37:00,0.0,1.8933,0.0008,403.43,0.21,233.7,30.9,137.95,34.73,24.64,36.42,1.05,-26.00,-25.97,-64,561,-929,30.3,13.7,-0.4,30.3,0.9,-32.3,5.73,2.26,-26.4,34.3
2012-05-25 01:38:00,0.0,1.8933,0.0011,403.41,0.18,236.5,22.1,137.95,34.73,24.64,36.42,1.05,-26.00,-25.75,-64,561,-929,30.3,13.7,-0.5,30.3,0.9,-32.5,5.73,2.24,-26.3,34.3
2012-05-25 01:39:00,0.0,1.8935,0.0008,403.48,0.17,241.8,26.9,137.95,34.74,24.64,36.42,1.01,-26.01,-25.88,-64,561,-929,30.3,13.7,-0.4,30.3,0.9,-32.7,5.73,2.25,-26.3,34.4
2012-05-25 01:40:00,0.0,1.8937,0.0009,403.52,0.22,239.9,24.8,137.95,34.75,24.64,36.42,0.94,-26.01,-25.98,-64,562,-929,30.4,13.7,-0.4,30.3,0.9,-32.7,5.73,2.27,-26.3,34.4
2012-05-25 01:41:00,0.0,1.8936,0.0007,403.47,0.19,243.6,24.8,137.95,34.75,24.64,36.42,1.04,-26.03,-25.76,-64,562,-929,30.4,13.6,-0.5,30.3,0.9,-32.8,5.73,2.25,-26.3,34.4
2012-05-25 01:42:00,0.0,1.8938,0.0010,403.39,0.17,250.6,27.1,137.95,34.76,24.64,36.42,1.05,-26.03,-25.89,-64,562,-929,30.4,13.7,-0.4,30.3,0.9,-32.5,5.73,2.24,-26.3,34.4
2012-05-25 01:43:00,0.0,1.8939,0.0009,403.44,0.18,239.6,24.5,137.95,34.77,24.64,36.42,1.02,-26.03,-26.01,-64,561,-929,30.4,13.8,-0.3,30.4,0.9,-32.9,5.73,2.26,-26.3,34.5
2012-05-25 01:44:00,0.0,1.8942,0.0010,403.46,0.20,253.6,21.3,137.95,34.77,24.64,36.42,1.07,-26.04,-25.78,-64,562,-929,30.4,13.7,-0.4,30.3,0.9,-32.6,5.73,2.27,-26.3,34.5
2012-05-25 01:45:00,0.0,1.8940,0.0008,403.38,0.19,254.8,26.1,137.95,34.78,24.64,36.42,1.07,-26.05,-25.90,-64,562,-929,30.4,13.8,-0.3,30.4,0.9,-32.6,5.73,2.24,-26.3,34.4
2012-05-25 01:46:00,0.0,1.8943,0.0010,403.41,0.20,243.5,28.5,137.95,34.78,24.64,36.42,0.96,-26.05,-26.04,-64,562,-929,30.4,13.9,-0.2,30.4,0.9,-32.7,5.73,2.24,-26.3,34.5
2012-05-25 01:47:00,0.0,1.8946,0.0009,403.42,0.22,256.2,23.9,137.95,34.79,24.64,36.42,1.02,-26.06,-25.81,-64,562,-929,30.4,13.9,-0.1,30.4,0.9,-32.6,5.73,2.26,-26.3,34.5
2012-05-25 01:48:00,0.0,1.8942,0.0009,403.41,0.16,247.4,26.5,137.95,34.80,24.64,36.42,1.00,-26.07,-25.90,-64,562,-929,30.5,13.9,-0.2,30.4,0.9,-32.6,5.73,2.26,-26.3,34.5
2012-05-25 01:49:00,0.0,1.8942,0.0009,403.45,0.19,253.6,25.6,137.95,34.81,24.64,36.42,1.01,-26.07,-26.06,-64,562,-929,30.5,13.9,-0.2,30.4,0.9,-32.5,5.73,2.24,-26.3,34.5
2012-05-25 01:50:00,0.0,1.8942,0.0009,403.47,0.22,249.6,23.6,137.95,34.81,24.64,36.41,1.06,-26.07,-25.82,-64,562,-929,30.5,13.8,-0.3,30.4,0.9,-32.9,5.73,2.25,-26.3,34.4
2012-05-25 01:51:00,0.0,1.8939,0.0011,403.39,0.21,243.2,30.5,137.95,34.82,24.64,36.42,1.09,-26.09,-25.92,-64,562,-929,30.5,13.8,-0.3,30.4,0.9,-32.5,5.73,2.27,-26.3,34.4
2012-05-25 01:52:00,0.0,1.8938,0.0007,403.46,0.21,246.5,30.1,137.95,34.82,24.64,36.42,1.03,-26.04,-26.11,-64,562,-929,30.5,13.8,-0.2,30.4,0.9,-32.6,5.73,2.24,-26.3,34.4
2012-05-25 01:53:00,0.0,1.8942,0.0010,403.35,0.21,248.2,30.1,137.95,34.83,24.64,36.42,0.94,-24.99,-26.32,-64,562,-929,30.5,13.9,-0.2,30.4,0.9,-32.8,5.73,2.23,-26.3,34.4
2012-05-25 01:54:00,0.0,1.8945,0.0008,403.38,0.21,245.5,24.6,137.95,34.84,24.64,36.41,0.90,-23.13,-26.48,-64,562,-929,30.5,13.9,-0.1,30.4,1.0,-31.6,5.73,2.26,-26.3,34.4
2012-05-25 01:55:00,0.0,1.8942,0.0009,403.39,0.18,244.1,27.0,137.95,34.84,24.64,36.42,0.89,-21.19,-26.58,-64,562,-929,30.5,13.9,-0.1,30.4,1.1,-30.7,5.73,2.26,-26.3,34.3
2012-05-25 01:56:00,0.0,1.8945,0.0008,403.36,0.17,250.6,28.3,137.95,34.85,24.64,36.42,0.91,-19.28,-26.64,-64,562,-929,30.5,13.9,-0.2,30.4,1.1,-30.3,5.73,2.23,-26.4,34.4
2012-05-25 01:57:00,0.0,1.8945,0.0008,403.36,0.21,250.9,25.8,137.95,34.86,24.64,36.42,0.92,-17.47,-26.69,-64,562,-929,30.5,13.9,-0.1,30.4,1.2,-30.1,5.73,2.24,-26.3,34.4
2012-05-25 01:58:00,0.0,1.8945,0.0010,403.43,0.18,249.0,25.3,137.95,34.87,24.64,36.41,0.94,-15.74,-26.71,-64,562,-929,30.5,13.8,-0.2,30.4,1.1,-30.2,5.73,2.26,-26.3,34.4
2012-05-25 01:59:00,0.0,1.8945,0.0009,403.39,0.17,247.5,28.7,137.95,34.87,24.64,36.41,0.96,-14.10,-26.73,-64,562,-929,30.5,13.9,-0.1,30.5,1.1,-30.6,5.73,2.24,-26.3,34.4
2012-05-25 02:00:00,0.0,1.8949,0.0009,403.33,0.18,241.8,25.4,137.95,34.88,24.64,36.42,0.97,-12.54,-26.74,-64,562,-929,30.5,14.0,-0.0,30.5,1.1,-30.7,5.73,2.23,-26.3,34.4
2012-05-25 02:01:00,0.0,1.8947,0.0007,403.38,0.20,248.3,32.2,137.95,34.89,24.64,36.41,0.96,-11.06,-26.75,-64,562,-929,30.5,14.0,0.0,30.5,1.1,-31.0,5.73,2.26,-26.3,34.5
2012-05-25 02:02:00,0.0,1.8947,0.0008,403.29,0.20,255.5,29.5,137.95,34.89,24.64,36.42,0.95,-9.66,-26.75,-64,562,-929,30.5,14.1,0.1,30.5,1.0,-31.1,5.73,2.27,-26.3,34.5
2012-05-25 02:03:00,0.0,1.8953,0.0010,403.32,0.19,255.2,24.7,137.95,34.90,24.64,36.41,0.93,-8.30,-26.76,-64,562,-929,30.5,14.2,0.2,30.5,1.0,-31.2,5.73,2.23,-26.3,34.5
2012-05-25 02:04:00,0.0,1.8957,0.0009,403.24,0.20,253.2,25.2,137.94,34.90,24.64,36.42,0.92,-7.02,-26.76,-64,562,-929,30.5,14.1,0.1,30.5,1.0,-31.4,5.73,2.24,-26.3,34.5
2012-05-25 02:05:00,0.0,1.8960,0.0009,403.25,0.23,253.8,27.8,137.95,34.91,24.64,36.41,0.90,-5.80,-26.76,-64,562,-929,30.6,14.1,0.1,30.5,1.0,-31.6,5.73,2.27,-26.3,34.5
2012-05-25 02:06:00,0.0,1.8955,0.0008,403.33,0.21,258.7,28.6,137.94,34.92,24.64,36.41,0.93,-4.66,-26.75,-64,562,-929,30.6,14.1,0.2,30.5,1.0,-31.7,5.73,2.25,-26.3,34.5
2012-05-25 02:07:00,0.0,1.8957,0.0010,403.31,0.18,257.7,27.3,137.94,34.93,24.63,36.42,0.92,-3.57,-26.75,-64,562,-929,30.6,14.2,0.2,30.5,1.0,-31.8,5.73,2.23,-26.3,34.6
2012-05-25 02:08:00,0.0,1.8956,0.0011,403.30,0.19,257.7,22.6,137.94,34.94,24.64,36.41,0.95,-2.53,-26.74,-64,562,-929,30.6,14.2,0.3,30.5,1.0,-31.9,5.73,2.24,-26.2,34.6
2012-05-25 02:09:00,0.0,1.8951,0.0009,403.22,0.17,265.2,26.6,137.94,34.94,24.64,36.42,0.94,-1.54,-26.73,-64,562,-929,30.6,14.3,0.3,30.5,1.0,-31.9,5.73,2.26,-26.2,34.6
2012-05-25 02:10:00,0.0,1.8952,0.0008,403.20,0.17,264.2,30.2,137.94,34.95,24.64,36.42,0.94,-0.60,-26.72,-64,562,-929,30.6,14.3,0.4,30.5,1.0,-32.0,5.73,2.24,-26.2,34.6
2012-05-25 02:11:00,0.0,1.8950,0.0008,403.27,0.20,266.9,24.1,137.94,34.95,24.64,36.41,0.95,0.29,-26.71,-64,562,-929,30.6,14.4,0.4,30.6,0.9,-32.2,5.73,2.24,-26.2,34.7
2012-05-25 02:12:00,0.0,1.8954,0.0009,403.29,0.17,263.3,24.4,137.94,34.96,24.64,36.41,0.96,1.14,-26.70,-64,562,-929,30.6,14.4,0.4,30.5,0.9,-32.2,5.73,2.26,-26.2,34.7
2012-05-25 02:13:00,0.0,1.8957,0.0009,403.24,0.19,259.1,26.7,137.94,34.96,24.64,36.41,0.96,1.95,-26.69,-64,562,-929,30.6,14.3,0.4,30.5,0.9,-32.4,5.73,2.25,-26.2,34.6
2012-05-25 02:14:00,0.0,1.8961,0.0009,403.25,0.20,263.6,25.8,137.94,34.97,24.64,36.41,0.97,2.69,-26.67,-64,562,-929,30.6,14.3,0.4,30.6,0.9,-32.6,5.73,2.23,-26.2,34.5
2012-05-25 02:15:00,0.0,1.8952,0.0010,403.26,0.16,261.9,26.4,137.94,34.98,24.64,36.41,0.97,3.23,-26.66,-64,562,-929,30.6,14.2,0.2,30.6,0.9,-32.4,5.73,2.25,-26.2,34.6
2012-05-25 02:16:00,0.0,1.8950,0.0010,403.27,0.19,255.4,26.5,137.94,34.99,24.64,36.41,0.97,3.72,-26.65,-64,562,-929,30.6,14.2,0.3,30.6,0.9,-32.5,5.73,2.26,-26.2,34.6
2012-05-25 02:17:00,0.0,1.8946,0.0008,403.29,0.17,262.2,26.9,137.94,34.99,24.64,36.41,0.97,4.22,-26.64,-64,563,-929,30.7,14.2,0.3,30.6,0.9,-32.4,5.73,2.24,-26.2,34.6
2012-05-25 02:18:00,0.0,1.8948,0.0010,403.26,0.17,262.9,21.8,137.94,35.00,24.64,36.41,0.97,4.78,-26.62,-64,563,-929,30.7,14.1,0.2,30.6,0.9,-32.8,5.73,2.23,-26.2,34.5
2012-05-25 02:19:00,0.0,1.8946,0.0008,403.23,0.19,259.5,28.0,137.94,35.01,24.64,36.41,0.96,5.36,-26.61,-64,562,-929,30.7,14.1,0.2,30.6,0.9,-33.0,5.73,2.25,-26.2,34.5